Time,TemperatureF,DewpointF,PressureIn,WindDirection,WindDirectionDegrees,WindSpeedMPH,WindSpeedGustMPH,Humidity,HourlyPrecipIn,Conditions,Clouds,dailyrainin,SoftwareType,DateUTC
2013-09-18 00:00:00,67.0,8.6,29.86,SSE,158,4.9,4.9,1,0.00,,,0.00,WUHU216HW,2013-09-18 05:00:00,
2013-09-18 00:05:00,67.0,8.6,29.86,SSE,158,4.9,4.9,1,0.00,,,0.00,WUHU216HW,2013-09-18 05:05:00,
2013-09-18 00:30:00,66.8,8.6,29.85,South,180,4.3,4.3,1,0.00,,,0.00,WUHU216HW,2013-09-18 05:30:00,
2013-09-18 00:32:00,66.8,8.6,29.85,South,180,4.3,4.3,1,0.00,,,0.00,WUHU216HW,2013-09-18 05:32:00,
2013-09-18 00:37:00,66.8,8.6,29.85,South,180,4.3,4.3,1,0.00,,,0.00,WUHU216HW,2013-09-18 05:37:00,
2013-09-18 01:00:00,67.0,8.6,29.84,SSW,203,2.5,2.5,1,0.00,,,0.00,WUHU216HW,2013-09-18 06:00:00,
2013-09-18 01:05:00,67.0,8.6,29.84,SSW,203,2.5,2.5,1,0.00,,,0.00,WUHU216HW,2013-09-18 06:05:00,
2013-09-18 01:30:00,67.1,8.8,29.85,SSW,203,4.3,4.3,1,0.00,,,0.00,WUHU216HW,2013-09-18 06:30:00,
2013-09-18 01:35:00,67.1,8.8,29.85,SSW,203,4.3,4.3,1,0.00,,,0.00,WUHU216HW,2013-09-18 06:35:00,
2013-09-18 02:00:00,67.9,9.4,29.84,South,180,3.6,3.6,1,0.00,,,0.00,WUHU216HW,2013-09-18 07:00:00,
2013-09-18 02:05:00,67.9,9.4,29.84,South,180,3.6,3.6,1,0.00,,,0.00,WUHU216HW,2013-09-18 07:05:00,
2013-09-18 02:30:00,67.9,9.4,29.83,SSW,203,2.7,2.7,1,0.00,,,0.00,WUHU216HW,2013-09-18 07:30:00,
2013-09-18 02:35:00,67.9,9.4,29.83,SSW,203,2.7,2.7,1,0.00,,,0.00,WUHU216HW,2013-09-18 07:35:00,
2013-09-18 03:00:00,67.3,9.0,29.83,SSW,203,2.9,2.9,1,0.00,,,0.00,WUHU216HW,2013-09-18 08:00:00,
2013-09-18 03:05:00,67.3,9.0,29.83,SSW,203,2.9,2.9,1,0.00,,,0.00,WUHU216HW,2013-09-18 08:05:00,
2013-09-18 03:30:00,67.0,8.6,29.81,SSW,203,1.6,1.6,1,0.00,,,0.00,WUHU216HW,2013-09-18 08:30:00,
2013-09-18 03:35:00,67.0,8.6,29.81,SSW,203,1.6,1.6,1,0.00,,,0.00,WUHU216HW,2013-09-18 08:35:00,
2013-09-18 04:00:00,66.8,8.6,29.80,SSW,203,6.3,6.3,1,0.00,,,0.00,WUHU216HW,2013-09-18 09:00:00,
2013-09-18 04:05:00,66.8,8.6,29.80,SSW,203,6.3,6.3,1,0.00,,,0.00,WUHU216HW,2013-09-18 09:05:00,
2013-09-18 04:30:00,66.6,8.4,29.80,SSW,203,4.9,4.9,1,0.00,,,0.00,WUHU216HW,2013-09-18 09:30:00,
2013-09-18 04:35:00,66.6,8.4,29.80,SSW,203,4.9,4.9,1,0.00,,,0.00,WUHU216HW,2013-09-18 09:35:00,
2013-09-18 05:00:00,66.4,8.3,29.79,SSW,203,3.4,6.3,1,0.00,,,0.00,WUHU216HW,2013-09-18 10:00:00,
2013-09-18 05:05:00,66.4,8.3,29.79,SSW,203,3.4,6.3,1,0.00,,,0.00,WUHU216HW,2013-09-18 10:05:00,
2013-09-18 05:30:00,66.6,8.4,29.79,SSW,203,3.6,3.6,1,0.00,,,0.00,WUHU216HW,2013-09-18 10:30:00,
2013-09-18 05:35:00,66.6,8.4,29.79,SSW,203,3.6,3.6,1,0.00,,,0.00,WUHU216HW,2013-09-18 10:35:00,
2013-09-18 06:00:00,66.6,8.4,29.79,SSW,203,4.0,4.0,1,0.00,,,0.00,WUHU216HW,2013-09-18 11:00:00,
2013-09-18 06:05:00,66.6,8.4,29.79,SSW,203,4.0,4.0,1,0.00,,,0.00,WUHU216HW,2013-09-18 11:05:00,
2013-09-18 06:30:00,66.6,8.4,29.79,SSW,203,1.8,1.8,1,0.00,,,0.00,WUHU216HW,2013-09-18 11:30:00,
2013-09-18 06:35:00,66.6,8.4,29.79,SSW,203,1.8,1.8,1,0.00,,,0.00,WUHU216HW,2013-09-18 11:35:00,
2013-09-18 07:00:00,66.4,8.3,29.79,SSW,203,4.9,4.9,1,0.00,,,0.00,WUHU216HW,2013-09-18 12:00:00,
2013-09-18 07:05:00,66.4,8.3,29.79,SSW,203,4.9,4.9,1,0.00,,,0.00,WUHU216HW,2013-09-18 12:05:00,
2013-09-18 07:30:00,66.4,8.3,29.79,SSW,203,2.5,2.5,1,0.00,,,0.00,WUHU216HW,2013-09-18 12:30:00,
2013-09-18 07:35:00,66.4,8.3,29.79,SSW,203,2.5,2.5,1,0.00,,,0.00,WUHU216HW,2013-09-18 12:35:00,
2013-09-18 08:00:00,67.3,9.0,29.79,SW,225,4.5,4.5,1,0.00,,,0.00,WUHU216HW,2013-09-18 13:00:00,
2013-09-18 08:05:00,67.3,9.0,29.79,SW,225,4.5,4.5,1,0.00,,,0.00,WUHU216HW,2013-09-18 13:05:00,
2013-09-18 08:30:00,68.8,10.1,29.79,SSW,203,1.6,1.6,1,0.00,,,0.00,WUHU216HW,2013-09-18 13:30:00,
2013-09-18 08:35:00,68.8,10.1,29.79,SSW,203,1.6,1.6,1,0.00,,,0.00,WUHU216HW,2013-09-18 13:35:00,
2013-09-18 09:00:00,70.7,11.5,29.79,SSE,158,3.6,3.6,1,0.00,,,0.00,WUHU216HW,2013-09-18 14:00:00,
2013-09-18 09:05:00,70.7,11.5,29.79,SSE,158,3.6,3.6,1,0.00,,,0.00,WUHU216HW,2013-09-18 14:05:00,
2013-09-18 09:30:00,73.4,13.7,29.79,SSW,203,6.3,6.3,1,0.00,,,0.00,WUHU216HW,2013-09-18 14:30:00,
2013-09-18 09:35:00,73.4,13.7,29.79,SSW,203,6.3,6.3,1,0.00,,,0.00,WUHU216HW,2013-09-18 14:35:00,
2013-09-18 10:00:00,75.6,15.2,29.79,SSW,203,4.7,4.7,1,0.00,,,0.00,WUHU216HW,2013-09-18 15:00:00,
2013-09-18 10:05:00,75.6,15.2,29.79,SSW,203,4.7,4.7,1,0.00,,,0.00,WUHU216HW,2013-09-18 15:05:00,
2013-09-18 10:30:00,77.6,16.7,29.78,South,180,8.5,8.5,1,0.00,,,0.00,WUHU216HW,2013-09-18 15:30:00,
2013-09-18 10:35:00,77.6,16.7,29.78,South,180,8.5,8.5,1,0.00,,,0.00,WUHU216HW,2013-09-18 15:35:00,
2013-09-18 11:00:00,79.2,17.9,29.77,SSW,203,4.5,4.5,1,0.00,,,0.00,WUHU216HW,2013-09-18 16:00:00,
2013-09-18 11:01:00,79.2,17.9,29.77,SSW,203,4.5,4.5,1,0.00,,,0.00,WUHU216HW,2013-09-18 16:01:00,
2013-09-18 11:06:00,79.2,17.9,29.77,SSW,203,4.5,4.5,1,0.00,,,0.00,WUHU216HW,2013-09-18 16:06:00,
2013-09-18 11:30:00,81.4,19.6,29.76,WSW,248,3.4,3.4,1,0.00,,,0.00,WUHU216HW,2013-09-18 16:30:00,
2013-09-18 11:35:00,81.4,19.6,29.76,WSW,248,3.4,3.4,1,0.00,,,0.00,WUHU216HW,2013-09-18 16:35:00,
2013-09-18 12:00:00,83.0,20.9,29.76,SSW,203,8.3,8.3,1,0.00,,,0.00,WUHU216HW,2013-09-18 17:00:00,
2013-09-18 12:05:00,83.0,20.9,29.76,SSW,203,8.3,8.3,1,0.00,,,0.00,WUHU216HW,2013-09-18 17:05:00,
2013-09-18 12:30:00,83.9,21.5,29.74,SW,225,10.1,10.1,1,0.00,,,0.00,WUHU216HW,2013-09-18 17:30:00,
2013-09-18 12:35:00,83.9,21.5,29.74,SW,225,10.1,10.1,1,0.00,,,0.00,WUHU216HW,2013-09-18 17:35:00,
2013-09-18 13:00:00,85.5,26.2,29.73,South,180,4.0,4.0,12,0.00,,,0.00,WUHU216HW,2013-09-18 18:00:00,
2013-09-18 13:05:00,85.5,26.2,29.73,South,180,4.0,4.0,12,0.00,,,0.00,WUHU216HW,2013-09-18 18:05:00,
2013-09-18 13:30:00,86.4,41.8,29.71,SSW,203,4.9,4.9,21,0.00,,,0.00,WUHU216HW,2013-09-18 18:30:00,
2013-09-18 13:35:00,86.4,41.8,29.71,SSW,203,4.9,4.9,21,0.00,,,0.00,WUHU216HW,2013-09-18 18:35:00,
2013-09-18 14:00:00,87.7,54.0,29.70,South,180,11.4,11.4,32,0.00,,,0.00,WUHU216HW,2013-09-18 19:00:00,
2013-09-18 14:05:00,87.7,54.0,29.70,South,180,11.4,11.4,32,0.00,,,0.00,WUHU216HW,2013-09-18 19:05:00,
2013-09-18 14:30:00,89.6,62.7,29.69,SSW,203,3.8,3.8,41,0.00,,,0.00,WUHU216HW,2013-09-18 19:30:00,
2013-09-18 14:35:00,89.6,62.7,29.69,SSW,203,3.8,3.8,41,0.00,,,0.00,WUHU216HW,2013-09-18 19:35:00,
2013-09-18 15:00:00,90.5,64.9,29.69,SE,135,3.1,3.1,43,0.00,,,0.00,WUHU216HW,2013-09-18 20:00:00,
2013-09-18 15:05:00,90.5,64.9,29.69,SE,135,3.1,3.1,43,0.00,,,0.00,WUHU216HW,2013-09-18 20:05:00,
2013-09-18 15:30:00,88.6,60.4,29.69,South,180,4.7,4.7,39,0.00,,,0.00,WUHU216HW,2013-09-18 20:30:00,
2013-09-18 15:35:00,88.6,60.4,29.69,South,180,4.7,4.7,39,0.00,,,0.00,WUHU216HW,2013-09-18 20:35:00,
2013-09-18 16:00:00,91.1,66.0,29.68,South,180,6.9,6.9,44,0.00,,,0.00,WUHU216HW,2013-09-18 21:00:00,
2013-09-18 16:05:00,91.1,66.0,29.68,South,180,6.9,6.9,44,0.00,,,0.00,WUHU216HW,2013-09-18 21:05:00,
2013-09-18 16:30:00,90.7,66.3,29.68,SSW,203,3.1,3.1,45,0.00,,,0.00,WUHU216HW,2013-09-18 21:30:00,
2013-09-18 16:35:00,90.7,66.3,29.68,SSW,203,3.1,3.1,45,0.00,,,0.00,WUHU216HW,2013-09-18 21:35:00,
2013-09-18 17:00:00,90.2,65.2,29.67,South,180,7.4,7.4,44,0.00,,,0.00,WUHU216HW,2013-09-18 22:00:00,
2013-09-18 17:05:00,90.2,65.2,29.67,South,180,7.4,7.4,44,0.00,,,0.00,WUHU216HW,2013-09-18 22:05:00,
2013-09-18 17:30:00,92.3,67.8,29.67,SSE,158,7.2,7.2,45,0.00,,,0.00,WUHU216HW,2013-09-18 22:30:00,
2013-09-18 17:35:00,92.3,67.8,29.67,SSE,158,7.2,7.2,45,0.00,,,0.00,WUHU216HW,2013-09-18 22:35:00,
2013-09-18 18:00:00,91.6,67.2,29.68,WSW,248,3.6,4.5,45,0.00,,,0.00,WUHU216HW,2013-09-18 23:00:00,
2013-09-18 18:05:00,91.6,67.2,29.68,WSW,248,3.6,4.5,45,0.00,,,0.00,WUHU216HW,2013-09-18 23:05:00,
2013-09-18 18:30:00,90.7,66.3,29.68,South,180,8.3,8.3,45,0.00,,,0.00,WUHU216HW,2013-09-18 23:30:00,
2013-09-18 18:35:00,90.7,66.3,29.68,South,180,8.3,8.3,45,0.00,,,0.00,WUHU216HW,2013-09-18 23:35:00,
2013-09-18 19:00:00,87.1,60.0,29.67,South,180,4.3,4.3,40,0.00,,,0.00,WUHU216HW,2013-09-19 00:00:00,
2013-09-18 19:05:00,87.1,60.0,29.67,South,180,4.3,4.3,40,0.00,,,0.00,WUHU216HW,2013-09-19 00:05:00,
2013-09-18 19:30:00,84.1,44.0,29.68,South,180,1.3,1.3,25,0.00,,,0.00,WUHU216HW,2013-09-19 00:30:00,
2013-09-18 19:35:00,84.1,44.0,29.68,South,180,1.3,1.3,25,0.00,,,0.00,WUHU216HW,2013-09-19 00:35:00,
2013-09-18 20:00:00,82.8,29.3,29.68,South,180,1.8,1.8,15,0.00,,,0.00,WUHU216HW,2013-09-19 01:00:00,
2013-09-18 20:05:00,82.8,29.3,29.68,South,180,1.8,1.8,15,0.00,,,0.00,WUHU216HW,2013-09-19 01:05:00,
2013-09-18 20:30:00,82.1,25.3,29.68,SSW,203,3.1,3.1,13,0.00,,,0.00,WUHU216HW,2013-09-19 01:30:00,
2013-09-18 20:35:00,82.1,25.3,29.68,SSW,203,3.1,3.1,13,0.00,,,0.00,WUHU216HW,2013-09-19 01:35:00,
2013-09-18 21:00:00,81.0,19.4,29.69,SSW,203,1.3,1.3,8,0.00,,,0.00,WUHU216HW,2013-09-19 02:00:00,
2013-09-18 21:05:00,81.0,19.4,29.69,SSW,203,1.3,1.3,8,0.00,,,0.00,WUHU216HW,2013-09-19 02:05:00,
2013-09-18 21:30:00,79.7,18.4,29.69,SSE,158,3.1,3.1,1,0.00,,,0.00,WUHU216HW,2013-09-19 02:30:00,
2013-09-18 21:35:00,79.7,18.4,29.69,SSE,158,3.1,3.1,1,0.00,,,0.00,WUHU216HW,2013-09-19 02:35:00,
2013-09-18 22:00:00,79.2,17.9,29.69,South,180,2.7,4.0,3,0.00,,,0.00,WUHU216HW,2013-09-19 03:00:00,
2013-09-18 22:05:00,79.2,17.9,29.69,South,180,2.7,4.0,3,0.00,,,0.00,WUHU216HW,2013-09-19 03:05:00,
2013-09-18 22:30:00,80.1,33.9,29.70,South,180,4.7,4.7,19,0.00,,,0.00,WUHU216HW,2013-09-19 03:30:00,
2013-09-18 22:35:00,80.1,33.9,29.70,South,180,4.7,4.7,19,0.00,,,0.00,WUHU216HW,2013-09-19 03:35:00,
2013-09-18 23:00:00,79.6,37.1,29.70,SSW,203,3.6,3.6,22,0.00,,,0.00,WUHU216HW,2013-09-19 04:00:00,
2013-09-18 23:01:00,79.6,37.1,29.70,SSW,203,3.6,3.6,22,0.00,,,0.00,WUHU216HW,2013-09-19 04:01:00,
2013-09-18 23:02:00,79.6,37.1,29.70,SSW,203,3.6,3.6,22,0.00,,,0.00,WUHU216HW,2013-09-19 04:02:00,
2013-09-18 23:07:00,79.6,37.1,29.70,SSW,203,3.6,3.6,22,0.00,,,0.00,WUHU216HW,2013-09-19 04:07:00,
2013-09-18 23:08:00,79.6,37.1,29.70,SSW,203,3.6,3.6,22,0.00,,,0.00,WUHU216HW,2013-09-19 04:08:00,
2013-09-18 23:30:00,79.0,29.5,29.71,SSW,203,4.5,4.5,17,0.00,,,0.00,WUHU216HW,2013-09-19 04:30:00,
2013-09-18 23:35:00,79.0,29.5,29.71,SSW,203,4.5,4.5,17,0.00,,,0.00,WUHU216HW,2013-09-19 04:35:00,